RH
18 23 41 59 57 57 60 60 64 64 63 61 59 60 62 57 50 43 48 56 52 60 69 65 66 71 81 90 94 99 99 99 99 98 99 99 98 98 98 97 99 100 98 99 100 100 100 92 92 100 100 98
18 17 30 50 48 48 55 55 58 60 58 55 51 52 53 48 39 31 38 47 44 52 56 48 55 64 73 84 89 94 98 99 99 98 99 99 99 100 100 100 98 94 96 99 100 100 98 88 87 96 99 99
19 19 26 36 34 37 44 46 52 52 47 41 36 37 38 33 29 24 29 35 35 42 40 28 42 61 67 75 83 90 95 98 98 98 100 100 99 100 100 97 91 86 91 97 98 100 94 83 82 89 94 97
19 21 24 27 28 31 34 35 39 36 30 27 27 28 28 26 25 26 26 29 30 33 30 20 31 54 65 68 73 86 90 87 92 98 99 100 100 100 98 92 87 86 88 91 93 95 90 80 78 81 86 92
20 20 21 22 25 30 31 32 32 29 25 24 26 27 27 26 25 26 27 28 30 30 29 25 25 38 59 64 60 78 81 65 76 94 95 95 99 96 93 91 88 88 88 88 89 88 85 79 77 78 80 85
20 20 19 20 25 30 30 31 31 28 26 25 26 26 25 26 26 26 27 29 30 32 31 31 27 26 46 58 48 57 57 40 53 76 78 79 89 88 87 90 88 88 88 88 88 87 85 81 80 79 78 79
21 21 21 23 27 30 29 28 29 26 25 26 25 25 25 25 27 27 27 29 31 33 34 33 32 26 30 41 37 34 32 27 36 49 53 58 70 76 79 85 86 87 88 88 88 87 86 84 83 82 80 78
22 23 24 28 29 28 28 26 26 26 25 26 25 24 24 25 26 28 29 30 31 33 36 34 34 31 25 28 31 29 26 26 29 33 38 45 53 62 70 78 82 85 87 87 87 87 87 86 85 84 83 80
23 24 26 28 28 27 26 26 26 26 26 25 24 25 25 26 26 28 29 29 32 34 37 36 34 34 29 27 30 32 30 27 28 29 33 37 43 50 59 68 75 81 84 86 86 86 87 86 85 85 85 84
23 25 26 27 27 27 26 26 26 25 26 25 25 27 27 29 29 29 29 29 32 35 37 38 35 34 32 30 30 32 32 30 29 29 31 34 37 42 48 57 65 73 79 83 85 85 85 85 84 84 85 85
23 25 25 26 26 27 27 26 26 26 26 27 28 29 30 31 32 31 30 29 31 35 39 38 36 35 34 32 30 32 33 32 31 30 31 34 36 37 40 45 52 60 69 75 80 83 84 83 83 82 82 83
22 24 24 26 27 26 27 26 26 27 27 28 29 30 32 33 35 36 34 32 33 37 41 39 37 38 36 35 32 32 33 33 32 32 32 33 36 37 37 39 42 48 54 63 72 77 82 82 81 80 80 80
21 24 25 25 27 26 27 27 27 28 29 30 31 31 32 35 38 40 40 38 38 41 43 41 40 41 39 37 35 33 33 34 34 34 33 33 35 36 38 39 39 41 44 50 58 67 75 79 80 79 78 77
22 23 25 25 26 26 26 27 29 30 31 31 31 32 33 36 41 44 44 44 45 46 46 43 43 44 42 39 37 35 34 35 35 36 35 35 35 36 38 40 40 41 41 42 46 54 65 73 77 78 77 76
23 24 25 26 26 27 28 29 31 31 31 31 31 33 34 38 43 45 46 46 48 49 47 47 47 46 42 40 38 36 36 35 36 38 37 37 36 37 38 40 40 40 41 41 41 43 51 61 70 75 75 75
23 25 26 26 26 28 30 31 32 31 31 32 32 34 36 39 42 44 44 45 46 47 47 47 47 45 42 40 39 38 38 36 37 39 38 39 37 37 39 39 40 40 41 41 42 41 42 47 57 67 72 73
24 26 26 26 27 29 31 32 32 32 32 34 34 36 38 41 42 43 43 44 45 45 45 44 44 43 41 41 40 40 39 38 38 39 40 41 40 40 41 40 40 42 41 41 43 41 39 39 44 53 62 68
25 26 27 27 29 31 32 32 33 34 34 35 37 38 40 42 42 42 44 45 45 46 45 44 43 42 42 41 41 41 41 40 39 39 41 42 43 43 42 41 43 44 42 42 41 40 40 37 37 40 47 57
25 27 27 28 30 31 32 32 33 35 35 36 38 39 40 41 41 41 46 50 47 46 46 46 45 44 43 42 42 42 42 42 41 41 41 42 44 45 45 47 46 45 45 44 40 38 39 35 32 33 36 41
26 27 28 29 31 31 31 31 33 35 35 36 38 39 40 39 39 43 51 54 50 48 47 46 47 46 45 45 44 44 43 43 43 43 42 43 44 44 49 53 50 51 51 49 45 39 35 33 30 29 30 30
25 26 28 30 31 30 30 30 32 34 34 35 37 39 39 39 42 50 55 54 51 49 47 46 46 46 46 46 46 45 45 45 44 44 44 44 44 43 49 55 54 56 56 56 56 49 38 33 29 27 26 24
25 27 29 30 30 30 29 30 31 33 33 33 36 37 38 43 50 55 56 54 52 49 48 47 46 46 47 46 46 46 45 45 44 44 44 43 42 41 47 57 58 56 58 60 65 61 48 39 34 28 23 21
26 28 29 29 29 30 30 30 30 32 33 33 36 37 40 49 57 57 55 54 52 50 49 47 46 47 46 47 47 45 45 45 44 44 43 42 42 40 43 55 59 57 61 67 71 67 57 49 38 25 20 20
27 29 30 29 30 30 29 30 31 32 33 34 37 39 45 55 60 58 56 55 53 51 50 47 48 47 47 48 46 48 52 50 45 46 46 45 45 46 49 57 61 64 72 76 72 66 61 51 35 28 26 26
26 29 30 29 30 30 30 30 33 34 34 36 37 40 49 59 62 60 58 56 54 52 50 49 49 49 49 48 48 57 62 54 50 50 48 47 50 57 65 68 69 77 82 77 67 61 57 46 38 45 44 49
26 28 28 29 29 29 31 31 33 35 35 36 37 39 48 58 61 60 58 55 52 51 50 50 52 52 52 51 55 64 61 52 52 51 46 50 60 67 72 75 79 83 81 73 64 58 54 46 46 50 46 58
25 27 28 28 29 30 31 32 33 35 35 37 38 38 44 54 60 58 55 51 49 50 48 51 57 57 56 57 60 62 57 53 55 53 49 55 67 69 66 70 78 77 72 71 68 65 60 51 46 39 38 52
25 28 29 30 30 31 32 33 35 36 36 37 39 40 42 50 58 56 53 50 49 49 48 54 60 60 62 64 62 59 58 56 57 58 57 62 68 64 58 61 67 65 65 75 80 75 65 55 52 44 47 58
26 29 30 31 32 33 36 37 39 40 39 38 40 45 47 50 55 53 52 52 50 48 52 59 61 62 66 67 62 58 57 57 59 61 62 67 66 60 59 57 58 58 63 78 84 78 72 73 75 65 61 63
27 30 30 31 33 35 38 41 42 40 39 39 41 47 49 49 49 50 54 55 50 48 57 64 63 64 66 65 60 57 58 60 62 62 65 70 63 59 63 58 54 53 58 71 73 72 80 84 81 74 73 73
27 30 29 30 31 32 36 39 40 37 38 40 41 44 46 46 48 53 58 54 48 49 59 66 65 64 65 62 57 56 62 64 62 64 68 70 62 59 61 57 53 50 54 60 57 65 80 75 70 74 81 83
Wind_Speed
24 24 21 19 19 19 19 19 18 18 19 19 20 20 20 21 22 24 23 22 23 22 21 22 22 23 22 21 20 19 19 19 20 22 22 22 23 24 25 27 28 31 33 35 35 35 33 29 22 11 1 4
25 25 23 20 21 20 19 18 18 18 18 19 19 19 20 21 23 25 24 22 23 22 22 23 22 22 22 21 20 19 18 17 19 21 22 21 21 23 23 24 27 29 30 31 33 34 33 30 26 18 6 1
24 25 24 23 23 22 20 19 18 18 19 20 20 20 20 22 24 26 25 24 24 22 23 24 23 21 21 21 20 19 18 17 17 18 20 20 20 21 21 23 28 30 29 28 30 32 32 30 27 22 14 7
24 24 25 25 24 22 21 20 19 19 21 22 21 21 21 22 23 25 25 25 24 23 24 24 22 20 20 20 20 19 18 18 17 17 17 18 19 19 20 23 28 29 29 28 27 29 30 30 28 25 22 16
23 24 24 25 23 21 21 20 20 21 22 22 21 21 22 22 23 24 24 24 23 22 23 23 21 20 19 19 20 19 19 20 19 17 17 17 17 18 19 22 25 26 28 28 27 27 28 29 29 28 26 23
23 23 23 23 22 21 20 20 20 21 22 22 22 22 22 22 22 23 23 22 21 21 21 20 20 20 18 17 19 20 20 21 20 18 18 18 18 18 19 20 22 22 24 26 27 27 28 28 29 29 27 25
21 21 21 20 20 19 19 19 19 20 21 21 21 22 23 23 23 23 23 21 19 19 19 19 18 18 19 18 18 19 21 22 20 20 20 20 19 20 20 20 20 20 21 23 24 26 27 28 28 28 28 26
20 20 19 18 18 18 18 18 19 20 21 21 22 23 24 24 24 23 23 21 19 18 17 17 16 16 19 20 19 18 20 21 21 20 20 21 21 21 21 21 20 20 20 21 22 23 24 27 28 28 28 27
19 19 18 17 17 17 17 18 19 20 21 22 24 24 24 24 23 23 23 22 20 17 16 15 15 15 17 20 19 17 18 20 21 21 21 21 22 22 21 21 21 20 20 20 21 21 22 24 26 28 28 27
18 17 17 17 17 17 18 19 20 21 23 24 24 24 24 23 22 22 22 22 21 18 14 14 13 13 14 17 18 17 16 18 20 22 22 22 22 22 22 22 21 21 21 21 20 20 21 23 25 26 27 28
17 17 17 17 18 18 19 20 21 23 24 24 24 23 23 23 22 22 21 21 21 17 13 12 11 11 12 14 16 16 15 15 17 20 22 22 22 22 22 22 22 22 21 21 21 21 20 21 23 24 25 26
18 18 18 18 18 19 20 21 22 23 24 24 24 23 23 23 22 21 20 20 19 16 12 10 10 10 10 11 13 15 15 14 14 17 20 22 22 23 22 23 23 23 23 23 23 22 21 21 22 23 23 25
19 19 19 19 19 20 21 22 22 23 23 23 23 23 23 22 21 19 18 18 17 14 11 9 9 9 9 9 10 12 15 14 13 14 17 19 21 23 23 23 24 24 24 24 24 23 23 22 22 22 23 24
19 19 19 19 19 20 21 21 22 22 22 23 23 24 22 21 19 17 16 15 14 13 10 9 9 8 8 8 8 10 13 14 13 12 14 17 19 21 22 23 24 25 25 25 24 24 24 23 23 22 22 23
20 19 19 19 19 20 21 21 21 21 22 23 23 23 22 20 18 16 14 13 12 11 9 8 7 7 7 7 7 8 10 13 14 12 12 15 17 19 20 22 24 25 26 27 26 24 24 24 24 23 23 22
20 20 19 20 20 20 20 21 21 21 22 22 23 23 22 20 18 17 15 13 12 10 8 6 6 6 6 6 6 7 8 11 14 14 13 14 16 18 18 21 23 23 26 27 27 26 25 25 24 24 24 23
21 20 20 20 20 20 20 20 21 22 22 22 22 22 21 20 18 17 16 15 13 11 9 7 6 6 6 6 6 6 8 10 13 16 16 15 15 17 18 20 22 22 25 27 27 28 27 26 25 24 24 24
21 20 20 20 20 20 20 20 21 23 23 22 22 22 21 20 19 17 16 15 14 13 12 11 9 9 8 8 8 8 9 10 12 17 19 17 17 17 18 21 20 21 24 26 28 29 28 27 26 25 25 24
21 20 20 20 19 19 20 21 22 23 23 23 22 21 21 20 20 18 16 15 15 14 13 13 13 12 11 10 10 10 10 11 12 16 20 20 20 19 19 19 20 21 22 24 27 28 27 27 27 26 25 24
22 21 20 20 19 20 20 22 23 23 23 22 21 20 20 21 20 17 16 15 15 14 13 14 14 14 14 13 12 12 12 13 13 15 19 22 22 21 19 18 20 20 18 20 24 26 27 27 26 25 24 23
22 21 21 20 20 20 21 22 24 23 21 21 20 18 18 18 16 15 15 14 14 14 13 13 14 14 14 14 13 13 14 14 14 15 17 22 24 23 21 19 19 17 15 17 19 22 26 26 24 23 21 21
22 22 21 21 20 20 21 22 23 21 19 18 17 16 15 14 13 14 14 14 14 14 13 13 14 14 14 14 14 14 15 15 15 15 15 19 23 23 22 19 17 16 15 15 16 19 23 22 21 21 20 19
22 22 21 21 21 21 21 22 21 19 18 16 15 14 14 13 13 14 15 15 15 14 14 14 14 15 14 15 15 15 15 15 16 15 15 16 19 22 22 18 15 15 15 15 15 17 18 18 20 20 17 15
23 22 21 21 21 21 21 21 20 18 18 16 15 14 13 13 14 15 16 16 16 15 15 15 15 15 15 15 15 14 13 13 14 14 14 14 15 17 18 16 13 13 14 15 14 13 15 17 19 16 14 13
23 22 21 21 20 21 21 20 19 19 18 17 15 14 14 14 15 17 17 17 17 16 16 15 14 15 15 15 14 11 10 11 12 12 13 13 12 11 11 12 11 12 13 11 10 11 13 15 15 10 8 7
25 24 22 21 21 21 21 20 19 19 19 18 17 15 14 15 17 18 18 18 17 16 16 14 14 14 14 13 11 9 9 10 10 10 11 11 10 8 7 8 8 12 12 8 10 11 9 10 10 7 4 1
26 25 23 21 20 20 20 20 19 20 21 20 19 17 16 16 18 18 18 17 16 15 14 13 12 11 11 10 8 8 9 9 8 8 9 8 8 8 8 6 5 9 11 10 12 10 5 5 5 4 5 5
26 24 22 21 20 19 19 20 20 20 22 22 20 19 17 17 18 19 18 16 15 14 13 12 11 10 9 9 8 8 9 8 7 6 6 6 6 7 8 7 5 7 9 10 10 6 4 4 3 2 5 12
26 24 22 20 18 18 18 19 19 20 22 22 20 18 17 17 18 19 18 16 15 14 12 11 10 9 8 9 9 9 9 8 7 5 4 4 5 6 7 7 7 7 7 7 6 6 4 3 3 3 7 12
26 25 23 20 19 19 17 17 18 19 20 20 19 17 17 18 19 19 17 17 16 14 12 11 11 10 9 10 10 10 9 8 7 6 4 3 4 5 5 7 8 8 6 4 5 5 3 3 5 6 8 7
28 26 24 22 21 21 20 19 21 22 21 21 21 20 20 21 20 18 17 18 16 14 13 12 12 12 11 11 12 10 8 8 7 6 5 4 4 5 5 6 7 8 6 5 5 4 3 5 7 7 6 4
Wind_Direction
346 349 351 351 350 352 351 351 353 356 359 2 4 4 5 4 2 1 2 2 360 358 355 354 353 351 351 349 345 343 341 337 336 336 337 337 338 340 340 342 344 346 348 348 349 350 352 357 358 356 252 217
342 344 345 343 343 345 344 344 347 350 354 355 357 359 359 357 356 355 358 359 357 358 354 350 351 350 348 348 345 342 341 339 336 335 337 337 337 340 343 344 342 340 343 346 346 347 349 355 359 0 4 12
338 339 339 336 336 337 337 336 339 342 345 346 348 350 350 349 348 350 352 353 352 354 351 347 349 350 347 345 346 344 341 341 339 336 337 339 338 341 345 340 334 332 336 340 343 345 346 351 356 0 8 16
334 335 334 332 333 334 332 330 330 333 337 339 341 343 343 342 342 344 346 347 348 348 347 345 345 347 347 343 345 347 344 342 340 338 336 341 342 342 343 334 330 330 330 331 336 341 342 345 352 359 5 11
329 330 331 331 333 334 332 329 326 329 334 336 338 339 338 335 336 338 340 342 343 343 343 343 341 341 347 344 342 345 346 342 341 340 334 337 342 339 337 331 328 330 329 327 329 333 336 339 346 355 359 5
326 328 330 331 332 333 331 329 326 328 332 334 335 336 335 332 330 331 332 336 338 338 337 338 337 335 341 345 341 340 343 342 341 341 335 333 334 330 329 328 328 329 330 329 327 327 331 334 341 347 352 359
326 327 330 330 330 330 328 327 326 328 330 331 332 332 332 329 324 323 324 327 330 332 330 331 334 331 330 336 342 339 339 342 343 341 336 334 331 324 324 327 330 331 331 330 329 328 329 331 335 339 344 351
326 327 328 327 325 323 322 323 324 326 327 328 329 328 327 324 320 318 317 319 320 323 325 326 328 329 326 327 339 345 340 342 346 344 338 336 334 329 327 328 332 333 333 332 331 330 329 329 330 334 337 342
324 324 324 321 319 318 318 320 321 323 324 325 326 326 325 322 318 316 315 314 314 315 318 320 321 326 327 326 334 345 345 343 346 349 347 344 341 339 337 332 332 334 335 334 332 331 330 328 327 329 333 334
319 318 318 316 315 316 316 318 321 322 324 325 326 326 324 322 319 317 315 314 311 309 310 313 315 318 322 324 327 337 348 347 344 348 352 352 349 346 343 339 335 333 333 333 332 330 329 328 327 327 328 329
312 310 311 312 312 314 316 319 322 323 325 326 326 326 324 323 322 319 316 314 312 306 303 305 305 308 314 318 321 327 340 347 344 344 349 352 353 350 346 343 339 335 332 331 330 329 328 327 326 326 325 326
306 305 307 309 310 313 316 319 322 323 324 325 324 324 323 322 321 320 316 313 311 303 296 294 293 298 305 310 314 319 328 341 346 343 344 347 350 351 349 345 342 340 336 332 329 326 325 325 324 324 323 323
301 302 305 306 308 311 313 316 319 320 321 321 320 320 319 319 319 320 319 314 308 297 284 279 284 289 293 300 307 312 319 330 343 345 343 343 346 348 349 347 345 342 338 336 332 327 323 322 322 322 321 320
296 298 301 303 305 308 311 313 315 317 317 316 316 316 316 315 316 318 320 318 310 296 282 275 278 279 278 292 301 304 311 320 333 343 343 341 342 344 345 345 344 342 338 337 334 330 324 319 317 318 318 318
293 295 297 300 303 306 309 310 312 314 314 312 311 311 311 309 309 312 314 316 314 301 289 280 271 265 268 284 297 304 306 312 323 334 340 339 338 339 340 339 340 340 337 335 333 331 326 320 315 312 313 313
290 292 295 299 303 306 307 308 310 311 310 309 307 307 306 303 303 305 306 308 310 305 295 280 263 262 269 277 292 307 305 306 315 323 332 335 332 333 334 334 334 335 334 333 332 330 327 323 316 311 308 308
288 289 293 298 303 305 307 308 307 308 307 305 304 302 300 298 298 300 301 299 300 299 294 285 272 271 274 279 289 303 309 306 307 315 324 330 330 330 329 329 330 330 330 330 328 327 326 323 318 313 307 303
286 287 292 297 302 304 305 306 306 305 304 303 300 298 296 294 294 296 296 293 292 290 288 286 283 281 281 285 291 298 308 310 307 309 317 325 327 327 326 325 325 325 325 325 324 323 323 321 318 315 309 302
283 286 291 296 300 302 304 305 304 303 302 300 297 294 292 290 291 292 290 286 284 283 282 282 283 284 285 287 293 298 303 310 311 307 310 319 323 324 324 322 321 321 321 319 320 320 318 318 317 314 310 303
281 284 289 294 298 300 303 304 303 302 300 298 294 292 290 289 289 287 280 276 275 276 277 279 280 283 286 287 290 294 299 305 310 309 307 312 318 321 321 318 318 318 315 314 315 316 315 314 314 312 308 304
278 283 287 291 296 298 301 304 303 301 298 297 294 291 289 288 287 277 269 269 271 273 274 278 281 283 286 288 290 292 296 300 305 309 308 307 312 317 319 317 317 315 310 309 308 310 312 313 313 309 305 302
275 279 284 288 293 295 299 302 302 299 297 297 295 291 288 284 278 270 267 268 273 276 277 280 283 284 286 289 293 295 297 299 301 305 307 306 308 313 316 316 316 313 309 307 304 305 311 313 310 306 302 298
271 274 279 284 289 292 296 301 301 296 295 296 294 289 282 274 268 268 271 272 276 280 282 284 286 285 288 291 296 299 300 300 300 303 306 307 308 311 313 313 315 315 312 308 302 302 306 308 306 301 295 288
266 269 274 280 285 288 294 300 300 294 293 296 294 285 273 264 264 270 275 277 279 281 283 286 286 286 289 293 298 300 300 300 302 305 308 309 310 312 313 315 319 321 318 311 302 299 300 304 307 300 287 282
262 263 268 274 280 285 293 298 298 292 292 295 292 280 266 261 263 270 277 281 281 281 281 282 282 284 289 293 296 297 295 299 303 306 308 310 312 314 316 319 324 331 329 321 316 313 305 311 321 318 300 284
259 261 265 271 278 285 291 295 294 290 290 293 291 282 267 261 265 270 277 280 280 281 279 277 276 281 287 289 290 288 291 299 303 305 308 312 316 319 322 322 329 344 347 337 330 327 312 317 331 341 349 185
257 261 265 271 278 283 288 292 292 289 290 290 289 285 271 261 262 269 275 277 278 280 277 271 269 277 282 278 277 286 296 301 303 306 309 313 318 320 323 323 336 352 356 342 331 329 314 324 336 345 12 342
256 259 263 268 276 281 283 286 287 286 288 288 288 287 276 261 260 267 273 274 276 278 271 262 261 268 268 262 269 287 297 297 295 300 304 309 316 319 320 323 332 349 355 348 344 345 323 340 357 360 10 337
253 253 257 263 270 275 276 278 279 278 282 286 286 283 274 263 261 267 271 271 276 275 262 253 253 255 253 255 271 286 289 286 282 283 288 295 307 314 316 317 321 331 350 354 360 4 341 348 356 323 354 339
247 247 251 256 259 263 265 267 268 271 277 283 284 278 272 268 268 268 267 270 275 266 249 247 249 247 248 258 273 282 280 274 271 271 267 266 289 301 303 311 313 318 336 340 337 349 333 323 330 319 341 347
242 243 247 252 255 259 260 260 265 273 278 280 281 280 276 274 271 266 264 270 272 255 240 244 247 247 252 263 273 274 269 263 263 264 256 256 277 284 287 297 302 304 317 320 313 322 308 310 319 309 315 315